Regional Weather Roundup
Issued by NWS Wakefield, VA

Home | Current Version | Previous Version | Graphics & Text | Print | Product List | Glossary On
Versions: 1 2 3 4 5 6 7 8 9 10 11 12 13 14 15 16 17 18 19 20 21 22 23 24 25 26 27
000
ASUS41 KAKQ 230215
RWRAKQ

REGIONAL WEATHER ROUNDUP
NATIONAL WEATHER SERVICE WAKEFIELD VA
1000 PM EDT MON MAY 22 2017

Note: "fair" indicates few or no clouds below 12,000 feet with no
significant weather and/or obstructions to visibility. * = Denotes
station may not report precipitation (e.g., rain,snow,etc.),
thunder or fog.

VAZ042-051-052>054-056-230300-
NORTHERN VIRGINIA

CITY           SKY/WX    TMP DP  RH WIND       PRES   REMARKS
WASH NATIONAL  CLOUDY    68  64  87 CALM      29.97S
DULLES         MOCLDY    65  62  90 SW5       30.00R
FORT BELVOIR   CLOUDY    63  62  95 NW3       29.98R
QUANTICO       CLEAR     65  65 100 NW5       29.99R
FREDERICKSBRG* MOCLDY    66  66 100 CALM      29.98R
STAFFORD*      MOCLDY    62  62 100 W3        30.03R FOG
WARRENTON      MOCLDY    65  61  88 CALM      29.98R
CULPEPER*      MOCLDY    67  66  97 CALM      29.99R
MANASSAS*        N/A     64  62  93 CALM      29.99R
LEESBURG*      PTCLDY    63  63 100 CALM      30.01R
WINCHESTER     PTCLDY    63  50  63 NW5       30.00R
FRONT ROYAL*   PTCLDY    64  52  63 CALM      30.00R
LURAY*         CLEAR     64  52  63 CALM      30.01R
$$

VAZ048-049-060>072-079>083-230300-
CENTRAL AND SOUTH CENTRAL VIRGINIA

CITY           SKY/WX    TMP DP  RH WIND       PRES   REMARKS
RICHMOND       MOCLDY    67  66  97 CALM      29.97S
CHESTERFIELD*  FAIR     N/A N/A N/A CALM      29.98S
PETERSBURG*    CLOUDY    63  62  96 CALM      29.98S
HANOVER        CLOUDY    65  63  93 CALM      29.99S FOG
TAPPAHANNOCK*  CLOUDY    65  65 100 CALM      29.98R
QUINTON*       FAIR      65  65 100 CALM      29.96S FOG
CHARLOTTSVILLE PTCLDY    69  67  93 CALM      29.98R
GORDONSVILLE*  PTCLDY    68  68 100 CALM      29.98R
ORANGE*        CLOUDY    66  64  94 CALM      29.98R
LOUISA*        MOCLDY    72  70  94 CALM      29.98R
BUMPASS*       CLOUDY    66  66 100 E5        29.98R
FARMVILLE*     CLOUDY    69  69 100 CALM      29.96R
CREWE*         FAIR      67  63  87 CALM      29.97R
FORT PICKETT*  FAIR     N/A N/A N/A SE6       29.98R
CHASE CITY*    FAIR      67  66  94 CALM      29.98R
CLARKSVILLE*   FAIR      68  68 100 CALM      29.97S
SOUTH HILL*    PTCLDY    66  66 100 CALM      30.04R
LAWRENCEVILLE* FAIR      67  66  96 CALM      29.98S
EMPORIA*         N/A     64  64 100 CALM      29.99S
$$

VAZ088>098-230300-
SOUTHEAST VIRGINIA

CITY           SKY/WX    TMP DP  RH WIND       PRES   REMARKS
NORFOLK        CLOUDY    70  67  90 VRB3      29.96R
VIRGINIA BEACH CLOUDY    69  66  90 NW6       29.95R
NORFOLK NAVAL  CLOUDY    72  66  81 NW7       29.97S
WEST POINT*    CLOUDY    67  65  95 CALM      29.98S
SALUDA*        CLOUDY    67  67 100 NW3       29.96S
NEWPORT NEWS   CLOUDY    67  65  93 CALM      29.97R
LANGLEY AFB    CLOUDY    67  67 100 CALM      29.95S
FORT EUSTIS    CLOUDY    68  66  93 CALM      29.94R
WILLIAMSBURG*  CLOUDY    68  68 100 CALM      29.97S
HR EXEC AP*    FAIR      66  63  88 W3        29.96R
FRANKLIN*      MOCLDY    66  66  98 CALM      29.98S FOG
US460-WAKEFLD  FOG       66  66 100 CALM      29.97S VSB 3/4
$$

VAZ020-022-025-037-045-230300-
WEST CENTRAL AND SOUTHWEST VIRGINIA

CITY           SKY/WX    TMP DP  RH WIND       PRES   REMARKS
STAUNTON*      CLEAR     66  49  54 N5        30.02R
WAYNESBORO*    MOCLDY    65  51  60 CALM      30.01R
HOT SPRINGS VA CLEAR     55  43  62 CALM      30.09R
LYNCHBURG      CLOUDY    63  60  90 CALM      29.99R
DANVILLE       CLOUDY    67  67 100 CALM      29.98R
SOUTH BOSTON*  FAIR      68  67  96 CALM      29.97S
MARTINSVILLE   LGT RAIN  66  65  94 CALM      30.01S
ROANOKE        PTCLDY    67  54  63 N7        30.02R
BLACKSBURG     CLOUDY    60  55  81 CALM      30.06S
DUBLIN*        CLOUDY    64  46  52 N3        30.05S
MARION*        CLOUDY    60  57  90 CALM      30.08S
HILLSVILLE*    CLOUDY    62  56  81 CALM      30.05R
RICHLANDS*     FAIR      59  55  84 E5        30.06S
WISE*          PTCLDY    57  55  94 NE6       30.07F
ABINGDON*      MOCLDY    65  59  82 CALM      30.02F
$$

MDZ021>025-VAZ099-100-230300-
SOUTHERN MARYLAND AND THE DELMARVA PENINSULA

CITY           SKY/WX    TMP DP  RH WIND       PRES   REMARKS
PATUXENT RIVER MOCLDY    64  64 100 N5        29.96F
BAY BRIDGE APT CLOUDY    63  61  94 N3        29.97F FOG
LEONARDTOWN    CLOUDY    63  63 100 CALM      29.98F
DOVER          CLOUDY    63 N/A N/A CALM      29.96S
GEORGETOWN     FOG       67  65  93 NE5       29.97R VSB 1/4
EASTON         CLOUDY    66  64  94 N3        30.00S FOG
CAMBRIDGE      PTCLDY    66  64  94 CALM      29.97S
SALISBURY      FOG       67  67 100 NW5       29.96R VSB 1/2
OCEAN CITY     FOG       64  63  96 CALM      29.96S VSB 3/4
WALLOPS ISLAND MOCLDY    66  66 100 N5        29.95R FOG
ACCOMACK*      CLOUDY    67  50  54 N6        29.94S
$$

NCZ012>017-030>032-230300-
NORTH CENTRAL AND EASTERN NORTH CAROLINA

CITY           SKY/WX    TMP DP  RH WIND       PRES   REMARKS
ROANOKE RAPIDS FAIR      66  66 100 CALM      29.97F
RALEIGH        LGT RAIN  73  67  81 E6        29.98S
ELIZABETH CITY CLOUDY    71  70  96 SW6       29.97R
AHOSKIE*         N/A     67  66  98 CALM      29.98S
EDENTON*       CLOUDY    73  67  79 CALM      29.99R
CURRITUCK*     CLOUDY    71  71 100 W3        29.98R
KILL DEVIL HLS NOT AVBL
MANTEO         CLOUDY    70  67  89 SW13      29.99R
CAPE HATTERAS  LGT RAIN  68  65  90 W9        30.01F
TARBORO*       NOT AVBL
GOLDSBORO      CLOUDY    73  71  95 S10       29.98R
WASHINGTON     CLOUDY    72  66  80 SW3       29.99R
GREENVILLE     CLOUDY    75  68  78 SE3       30.00S
NEW BERN       LGT RAIN  69  68  96 CALM      30.00F
WILMINGTON     RAIN      67  66  97 SW7       30.01R FOG
$$

VAZ048-230300-
ELSEWHERE

CITY           SKY/WX    TMP DP  RH WIND       PRES   REMARKS
HARRISBURG PA  CLOUDY    62  60  93 N3        29.98S
BALTIMORE      CLOUDY    62  62 100 CALM      29.97F
ANNAPOLIS      CLOUDY    65  65 100 N3        29.96F
ANDREWS AFB    CLOUDY    63  62  95 CALM      29.96F
PHILADELPHIA   CLOUDY    66  61  84 VRB6      29.98S
HENDERSON NC   CLOUDY    68  64  88 CALM      29.98S
GREENSBORO     CLOUDY    73  68  84 SE3       29.97S
ROCKY MOUNT    CLOUDY    70  70 100 CALM      29.98S
$$

VAZ100-230300-
MARINE

STATION/POSITION TIME  TEMP    WIND        PRES    WAVE   SWELL
                       AIR SEA DIR/SP/G            HT/PER HT/PER
                 (UTC) (F)     (DEG/KT/KT) (MB)    (FT/S) (FT/S)
CAPE MAY NJ      0148   63 61   CALM  /  1 1014.5R
LEWES DE         0148   62 62  310/  3/  4 1014.8R
15NM E FENWICK I 0150   64 58  310/  4/  4 1014.9S   3/ 8   2/ 8
OCEAN-CITY-INLET 0148   64 62  350/  1/  2 1015.1R
WACHAPREAGUE VA  0148   67 67  320/  3/  6 1013.2R
THOMAS POINT MD  0200   64 66  360/  4/  5   N/A
GOOSES REEF MD   0200   66 58   40/  6/  6 1015.3    0
COVE POINT MD    0148   65      10/  4/  7 1015.2F
SOLOMONS ISLAND  0148   65 67  360/  5/  6   N/A
BISHOPS HEAD MD  0148   66 69  360/  3/  4 1014.9R
PINEY POINT MD   0148           50/  3/  4   N/A
POTOMAC MD       0200   66 68   10/  4/  6 1013.6    0
CAMBRIDGE MD     0142   66 70                N/A
LEWISETTA VA     0148   67 70   10/  3/  4 1014.6F
RAPPAHANNOCK LGT 0148          340/ 10/ 11 1014.7R
STINGRAY PT      0150   67     350/  8/ 10 1014.3R
YORK RVR RNG VA  0148   68     310/  7/  8 1013.9R
YORKTOWN VA      0148   69 69  320/  4/  6 1014.4R
JAMESTOWN VA     0200   70 73   40/  2/  2   N/A     0
DOMINION TERM VA 0148   70     350/  4/  5 1014.6S
KIPTOPEKE VA     0148      66  330/ 10/ 11   N/A
CHES BAY BRIDGE  0148   69 66  290/ 11/ 13 1014.4R
CAPE HENRY VA    0148   68     290/  9/ 12   N/A
WILLOUBY STN VA  0148   69     310/  6/  7 1014.5R
S CRANEY ISL VA  0148   69     340/  4/  6 1014.5R
CAPE HENRY BUOY  0142      62                N/A     3/ 5
1ST LANDING BUOY 0200   69 67              1014.7    2/ 3
CAPE CHARLES BUO 0151      63                N/A     3/ 5
64NM E OF VA BCH 0150   68 69  220/ 16/ 17 1014.2R   3/ 8   2/ 8
DUCK PIER NC     0148   72 65  200/  8/ 11 1014.5R
44100 DUCK FRF   0135      66                N/A     3/ 5
44056 DUCK FRF   0100      66                N/A     3/ 8
OREGON INLET NC  0148          190/ 12/ 14 1015.0R
HATTERAS NC      0148   67 75  200/  5/  8 1016.1R
DIAMOND SHLS NC  0150   72 78  290/ 16/ 17 1016.8R   4/ 9   3/ 9
CAPE LOOKOUT NC  0200   76     210/  8/ 10 1015.5S
$$




USA.gov is the U.S. government's official web portal to all federal, state and local government web resources and services.